Tekamah, NE

1:17 PM CDT on August 21, 2017 (GMT -0500)
Tekamah

Weather History for KTQE - January, 2013

Change the Weather History Date:

Saturday, January 5, 2013

  Actual Average Record
Temperature  
Mean Temperature 18 °F -  
Max Temperature 30 °F 27 °F 68 °F (2012)
Min Temperature 7 °F 8 °F -13 °F (1960)
Degree Days  
Heating Degree Days 46    
Moisture  
Dew Point 13 °F    
Average Humidity 77    
Maximum Humidity 87    
Minimum Humidity 67    
Precipitation  
Precipitation 0.00 in - - ()
Sea Level Pressure  
Sea Level Pressure 30.12 in    
Wind  
Wind Speed 12 mph (West)    
Max Wind Speed 30 mph    
Max Gust Speed 39 mph    
Visibility 6 miles    
Events      
Averages and records for this station are not official NWS values.
T = Trace of Precipitation, MM = Missing Value Source: NWS Daily Summary

Daily Weather History Graph

Daily Weather History Graph

Search for Another Location

Airport or City:

Trip Planner

Search our weather history database for the weather conditions in past years. The results will help you decide how hot, cold, wet, or windy it might be!

Date:

Astronomy

Jan. 05, 2013 Rise Set
Actual Time 7:52 AM CST 5:08 PM CST
Civil Twilight 7:20 AM CST 5:40 PM CST
Nautical Twilight 6:46 AM CST 6:14 PM CST
Astronomical Twilight 6:12 AM CST 6:48 PM CST
Moon 12:56 AM CST (1/5) 12:01 PM CST (1/5)
Length of Visible Light 10h 19m
Length of Day
9h 16m
Last Quarter, 44% of the Moon is Illuminated
Jan 5
Last Quarter
Jan 11
New
Jan 18
First Quarter
Jan 26
Full
Feb 3
Last Quarter

Hourly Weather History & Observations

Time (CST) Temp. Windchill Dew Point Humidity Pressure Visibility Wind Dir Wind Speed Gust Speed Precip Events Conditions
12:54 AM 10.9 °F -3.4 °F 6.1 °F 81% 30.15 in 7.0 mi SSE 11.5 mph - N/A   Clear
1:54 AM 12.0 °F -2.0 °F 7.0 °F 80% 30.13 in 7.0 mi SSE 11.5 mph - N/A   Clear
2:54 AM 9.0 °F -4.2 °F 5.0 °F 84% 30.14 in 6.0 mi SSE 9.2 mph - N/A   Clear
3:54 AM 7.0 °F -1.7 °F 3.9 °F 87% 30.12 in 5.0 mi South 4.6 mph - N/A   Clear
4:54 AM 7.0 °F -6.6 °F 3.0 °F 84% 30.10 in 5.0 mi South 9.2 mph - N/A   Clear
6:54 AM 10.0 °F - 6.1 °F 84% 30.08 in 4.0 mi Calm Calm - N/A   Clear
7:54 AM 9.0 °F -6.6 °F 5.0 °F 84% 30.09 in 3.0 mi SSE 12.7 mph - N/A   Clear
8:54 AM 10.9 °F 1.4 °F 7.0 °F 84% 30.11 in 3.0 mi WSW 5.8 mph - N/A   Clear
9:54 AM 16.0 °F 4.4 °F 12.0 °F 84% 30.08 in 3.0 mi South 9.2 mph - N/A   Clear
10:54 AM 21.9 °F 9.2 °F 15.1 °F 75% 30.08 in 6.0 mi SW 13.8 mph - N/A   Haze
11:54 AM 23.0 °F 11.7 °F 15.1 °F 72% 30.06 in 7.0 mi WSW 11.5 mph - N/A   Clear
12:54 PM 23.0 °F 14.7 °F 16.0 °F 74% 30.04 in 6.0 mi WSW 6.9 mph - N/A   Haze
1:54 PM 25.0 °F 18.1 °F 18.0 °F 75% 30.03 in 6.0 mi SW 5.8 mph - N/A   Haze
2:54 PM 27.0 °F - 19.0 °F 72% 30.04 in 7.0 mi Calm Calm - N/A   Clear
3:54 PM 30.9 °F 24.3 °F 21.0 °F 67% 30.06 in 10.0 mi WNW 6.9 mph - N/A   Clear
4:54 PM 28.0 °F 20.8 °F 19.9 °F 72% 30.07 in 10.0 mi NW 6.9 mph - N/A   Clear
5:54 PM 30.0 °F 16.3 °F 21.0 °F 69% 30.10 in 9.0 mi NW 24.2 mph 31.1 mph N/A   Clear
6:54 PM 25.0 °F 11.7 °F 18.0 °F 75% 30.14 in 7.0 mi NW 17.3 mph - N/A   Partly Cloudy
7:09 PM 28.4 °F 14.7 °F 19.4 °F 69% 30.10 in 7.0 mi NW 21.9 mph 28.8 mph N/A   Mostly Cloudy
7:54 PM 25.0 °F 8.1 °F 17.1 °F 72% 30.18 in 7.0 mi NNW 29.9 mph 39.1 mph N/A   Overcast
8:25 PM 24.8 °F 10.0 °F 17.6 °F 74% 30.13 in 6.0 mi NW 21.9 mph 28.8 mph N/A   Haze
8:54 PM 24.1 °F 7.7 °F 16.0 °F 71% 30.18 in 6.0 mi NW 26.5 mph 33.4 mph N/A   Haze
9:54 PM 19.9 °F 2.8 °F 14.0 °F 78% 30.21 in 6.0 mi NW 24.2 mph - N/A   Haze
10:13 PM 19.4 °F 2.8 °F 14.0 °F 80% 30.18 in 6.0 mi NW 21.9 mph 29.9 mph N/A   Haze
10:54 PM 21.0 °F 5.7 °F 15.1 °F 78% 30.23 in 6.0 mi NW 19.6 mph 27.6 mph N/A   Haze
11:54 PM 21.9 °F 9.8 °F 16.0 °F 78% 30.25 in 7.0 mi NNW 12.7 mph - N/A   Overcast